Location: Adair
(33.3137°N, 90.0906°W)
Time: 00:43:26
(UTC+00:00)

ISS - Pass Details

Date: 11 May 2026
Orbit: 415 x 423 km, 51.6° (Epoch: 10 June)

Event Time Altitude Azimuth Distance (km) Brightness Sun altitude
Rises 02:25:43 0° 269° (W) 2,345 0.9 -18.2°
Reaches altitude 10° 02:28:37 10° 297° (WNW) 1,485 0.2 -18.7°
Maximum altitude 02:30:25 14° 330° (NNW) 1,281 -0.4 -19.0°
Drops below altitude 10° 02:32:13 10° 2° (N) 1,488 -0.5 -19.3°
Enters shadow 02:39:06 -11° 45° (NE) 3,824 1.1 -20.4°
